AZERSPACE 1

Last updated on Thu Oct 30 2025 00:02:49 GMT+0000 (Coordinated Universal Time)

1 39079U 13006B 25302.48017774 .00000143 00000+0 00000+0 0 9994 2 39079 0.0050 62.9123 0001942 179.5728 14.4722 1.00273283 46492
UTC large
Height (km)
Speed (km/s)
/
Latitude / Longitude
Inclination (degrees)
Orbital Period (minutes)
Azimuth
Elevation
Range (km)
Doppler Factor

Next 0 passes for location: London (51.5072 / 0.1276)

Sorry there are no passes over London.